Location: Buckeye Ditch
(40.9104°N, 122.9517°W)
Time: 15:36:55
(UTC+00:00)

A-11 Canister half - Pass Details

Date: 25 May 2025
Orbit: 1515 x 1684 km, 47.2° (Epoch: 14 June)

Event Time Altitude Azimuth Distance (km) Brightness Sun altitude
Rises 05:53:31 0° 228° (SW) 4,827 11.5 -20.6°
Reaches altitude 10° 05:56:41 10° 226° (SW) 3,821 11.0 -20.9°
Maximum altitude 06:06:17 70° 145° (SE) 1,652 8.9 -21.9°
Drops below altitude 10° 06:15:34 10° 64° (ENE) 3,708 11.0 -22.7°
Sets 06:18:35 0° 63° (ENE) 4,679 11.5 -23.0°
